AirNav   Air Wisconsin pilot careers
 
 1369 users online  

58AR Price Coffee Airfield
Bentonville, Arkansas, USA

GOING TO BENTONVILLE?


FAA INFORMATION EFFECTIVE 26 APRIL 2018

Location

FAA Identifier: 58AR
Lat/Long: 36-24-21.0000N / 094-10-31.0000W
36-24.350000N / 094-10.516667W
36.4058333 / -94.1752778
(estimated)
Elevation: 1067 ft. / 325 m (estimated)
From city: 2 miles NE of BENTONVILLE, AR
Time zone: UTC +0 (year round; does not observe DST)
Zip code: 72712

Airport Operations

Airport use: Private use. Permission required prior to landing
Activation date: 09/2017
Control tower: no
ARTCC: MEMPHIS CENTER
FSS: JONESBORO FLIGHT SERVICE STATION
Attendance: UNATTND
Segmented circle: no

Airport Communications

WX AWOS-3PT at ROG (4 nm SE): 134.375 (479-631-9196)
WX AWOS-3PT at VBT (4 nm SW): 134.975 (479-273-9198)
WX ASOS at XNA (10 nm SW): 119.425 (479-203-0109)
WX AWOS-3 at ASG (14 nm S): 124.675 (479-750-2967)
WX AWOS-3PT at SLG (20 nm SW): 118.375 (479-524-9893)

Nearby radio navigation aids

VOR radial/distance  VOR name  Freq  Var
RZCr341/9.9RAZORBACK VORTAC116.4004E
DAKr356/21.8DRAKE VOR/DME115.2507E
EOSr147/29.0NEOSHO VOR/DME117.3007E

 
NDB name  Hdg/Dist  Freq  Var  ID
ROGRS233/6.126304ERO .-. ---
SILOAM SPRINGS045/20.028404ESLG ... .-.. --.

Airport Services

Runway Information

Runway 11/29

Dimensions: 2300 x 60 ft. / 701 x 18 m
Surface: turf
RUNWAY 11  RUNWAY 29
Traffic pattern: leftright

Airport Ownership and Management from official FAA records

Ownership: Privately-owned
Owner: PRICE COFFEE, LLC
PO BOX 1860
BENTONVILLE, AR 72712
Phone 479-464-1526
Manager: CHAD COX
3404 CARDINAL LN
BENTONVILLE, AR 72712
Phone 501-732-0658

Instrument Procedures

There are no published instrument procedures at 58AR.

Some nearby airports with instrument procedures:

KROG - Rogers Executive Airport - Carter Field (4 nm SE)
KVBT - Bentonville Municipal Airport/Louise M Thaden Field (4 nm SW)
KXNA - Northwest Arkansas Regional Airport (10 nm SW)
5M5 - Crystal Lake Airport (14 nm W)
KASG - Springdale Municipal Airport (14 nm S)
KSLG - Smith Field Airport (20 nm SW)
 
Loc | Ops | Rwys | IFR | FBO | Links
Com | Nav | Svcs | Stats | Notes

AirNav Hotels Sweepstakes
 
Aerial photo
No photo
 
Airport distance calculator
Flying to Price Coffee Airfield? Find the distance to fly.

From to 58AR

Sunrise and sunset
Times for 23-May-2018
 Local
(UTC-5)
 Zulu
(UTC)
Morning civil twilight05:3610:36
Sunrise06:0511:05
Sunset20:2201:22
Evening civil twilight20:5101:51

Current date and time
Zulu (UTC)  23-May-2018 21:35:03
Local (UTC-5)  23-May-2018 16:35:03
 
METAR
KVBT 
4nm SW 
232056Z AUTO 25004KT 10SM CLR 24/20 A3013 RMK AO2 SLP196 60000 T02390200 55014 TSNO
KROG 
5nm SE 
232058Z 11004KT 6SM BR FEW008 BKN120 23/21 A3013 RMK AO2 SLP191 60011 T02280206 55013
KXNA 
10nm SW 
232053Z 00000KT 10SM FEW095 BKN120 23/20 A3012 RMK AO2 SLP188 60005 T02330200 55011
KASG 
15nm S 
232048Z 09006KT 10SM OVC120 22/22 A3013
KSLG 
19nm SW 
232056Z AUTO 00000KT 10SM OVC120 22/20 A3011 RMK AO2 RAE19 SLP190 P0000 60014 T02170200 55012
TAF
KROG 
5nm SE 
232028Z 2320/2418 00000KT P6SM VCSH OVC110 FM240100 11005KT P6SM BKN150 FM241500 15006KT P6SM VCTS SCT035CB BKN150
KXNA 
10nm SW 
232028Z 2320/2418 20004KT P6SM VCSH SCT035 FM240100 00000KT P6SM BKN150 FM241500 16005KT P6SM VCTS SCT035CB BKN150
NOTAMs
Click for the latest NOTAMs
NOTAMs are issued by the DoD/FAA and will open in a separate window not controlled by AirNav.

 

 
 

Would you like to see your business listed on this page?

 If your business provides an interesting product or service to pilots, flight crews, aircraft, or users of the Price Coffee Airfield, you should consider listing it here.  To start the listing process, click on the button below
 
Add a business
 

Other Pages about Price Coffee Airfield

Update a link
 
Copyright © AirNav, LLC. All rights reserved. Privacy Policy  Contact